Preview of NWS' New Version of Forecast
This preview is not operational and should not be used for support decisions.

Regional Weather Roundup (RWR)

Issued by National Weather Service (NWS)

                            
000
ASUS42 KTBW 200317
RWRFL 
FLORIDA REGIONAL WEATHER ROUNDUP
NATIONAL WEATHER SERVICE TAMPA BAY RUSKIN FL
1100 PM EDT THU SEP 19 2019

NOTE: "FAIR" INDICATES FEW OR NO CLOUDS BELOW 12,000 FEET WITH NO
SIGNIFICANT WEATHER AND/OR OBSTRUCTIONS TO VISIBILITY.

FLZ001>010-012>015-112-114-115-200400-
PANHANDLE FLORIDA
  
CITY           SKY/WX    TMP DP  RH WIND       PRES   REMARKS
PENSACOLA      FAIR      81  72  74 SE7       30.08R                  
PENSACOLA NAS  MOCLDY    81  71  71 SE9       30.08R                  
MILTON NAS     MOCLDY    73  70  90 NE3       30.10R                  
CRESTVIEW      FAIR      76  63  64 CALM      30.12R                  
DUKE FIELD     FAIR      79  62  56 E5        30.10R                  
VALPARAISO     MOCLDY    82  62  49 E8        30.09R                  
MARY ESTHER    CLEAR     80  70  71 CALM      30.08R                  
PANAMA CITY    FAIR      79  55  43 NE8       30.09R                  
TYNDALL AFB    FAIR      77  62  59 E5        30.09R                  
APALACHICOLA   FAIR      75  59  57 NE8       30.08R                  

STATION/POSITION SKY/WX   TEMP    WIND        PRES    WAVE   SWELL
                          AIR SEA DIR/SP/G            HT/PER HT/PER
                          (F)     (DEG/KT/KT) (MB)    (FT/S) (FT/S)
30.1N   87.6W              83 85  120/ 14/ 17 1018.1R   5/ 7   3/ 7
29.2N   88.2W              83     120/ 16/ 19 1017.7R   4/ 6
28.8N   86.0W                 85   70/ 17/ 21 1017.7R   5/ 6
PANAMA CITY BEAC           81 84   90/  4/ 10 1019.3R
TOWER C                    80      90/ 27/ 30 1018.6R
28.5N   84.5W              82      60/ 19/ 25 1018.0R   6/ 6

$$
FLZ011-016>038-118-127-128-134-139-239-200400-
NORTH FLORIDA
  
CITY           SKY/WX    TMP DP  RH WIND       PRES   REMARKS
MARIANNA       FAIR      70  58  65 NE6       30.11R                  
TALLAHASSEE    FAIR      77  61  57 E10       30.12R                  
PERRY          FAIR      75  65  71 E12G18    30.14R                  
LIVE OAK       CLOUDY    73  64  73 NE6       30.14S                  
CROSS CITY     MOCLDY    71  68  91 NE8       30.13S                  
LAKE CITY      MOCLDY    72  64  78 NE7       30.15S                  
GAINESVILLE    CLOUDY    71  67  87 NE7       30.14F                  
WILLISTON      MOCLDY    70  69  96 N5        30.11S                  
PALATKA        CLOUDY    68  66  94 E3        30.12S                  
MAYPORT NAS    FAIR      76  68  76 NE25      30.12R                  
JACKSONVILLE   CLOUDY    74  66  76 NE15      30.13S                  
JAX NAS        LGT RAIN  70  67  90 E14       30.14R FOG              
JAX CECIL      PTCLDY    70  68  94 N9        30.13S                  
FERNANDINA BEA MOCLDY    75  67  76 NE21G28   30.14S                  
ST AUGUSTINE   MOCLDY   N/A N/A N/A NE18      30.12S                  
PALM COAST     CLOUDY    77  65  66 E12G18    30.09S                  

STATION/POSITION SKY/WX   TEMP    WIND        PRES    WAVE   SWELL
                          AIR SEA DIR/SP/G            HT/PER HT/PER
                          (F)     (DEG/KT/KT) (MB)    (FT/S) (FT/S)
SHELL POINT      NOT AVBL
KEATON BEACH               75      70/ 11/ 13 1020.3R
CEDAR KEY                  75      50/ 12/ 14 1019.4R
FERNANDINA                 80 82   20/  7/ 14 1021.3
30.7N   81.3W                 82                N/A     8/ 7   3/13
MAYPORT                    76 82   50/ 23/ 29 1020.6
31.4N   80.9W              77 82   60/ 21/ 27 1020.5R   7/ 7   3/13
ST AUGUSTINE               79 81   40/ 19/ 21 1019.3F

$$
FLZ040-043>046-052-053-057-058-063-144-200400-
INTERIOR CENTRAL FLORIDA
  
CITY           SKY/WX    TMP DP  RH WIND       PRES   REMARKS
OCALA          CLOUDY    72  69  90 N7        30.11                   
LEESBURG       MOCLDY    74  69  85 N6        30.10R                  
SANFORD        FAIR      72  66  81 NE6       30.07R                  
ORLANDO EXEC   FAIR      76  65  68 NE6       30.07R                  
ORLANDO INTL   FAIR      74  66  76 N8        30.07R                  
KISSIMMEE      FAIR      76  67  73 N6        30.07S                  
WINTER HAVEN   FAIR      76  66  71 NE7       30.07R                  
BARTOW         FAIR      75  66  73 CALM      30.05S                  
SEBRING        FAIR      72  68  88 N5        30.05S                  
OKEECHOBEE       N/A     72  68  88 NE8       30.03R                  

$$
FLZ041-047-054-059-064-141-147-200400-
EAST CENTRAL FLORIDA
  
CITY           SKY/WX    TMP DP  RH WIND       PRES   REMARKS
DAYTONA BEACH  FAIR      78  65  63 E14       30.08R                  
DELAND         MOCLDY    75  64  69 NE6       30.08R                  
JFK SPACE CTR  MOCLDY    79  47  31 E13       30.05S                  
CAPE CANAVERAL RAIN      74  73  98 NE13G25   30.05S FOG              
PATRICK AFB    MOCLDY    78  69  73 E24G31    30.04R                  
MELBOURNE      LGT RAIN  75  67  76 E20G35    30.05R                  
VERO BEACH     MOCLDY    80  69  69 NE15G26   30.03S                  
FT PIERCE      FAIR      77  68  73 NE12G20   30.02R                  
STUART         CLOUDY    81  66  61 NE21      30.02S                  

STATION/POSITION SKY/WX   TEMP    WIND        PRES    WAVE   SWELL
                          AIR SEA DIR/SP/G            HT/PER HT/PER
                          (F)     (DEG/KT/KT) (MB)    (FT/S) (FT/S)
28.5N   80.2W              80 83   60/ 25/ 31 1017.7R  11/13   8/13
28.9N   78.5W              78 81   70/ 21/ 31 1018.4
TRIDENT PIER               78 83   40/ 18/ 24 1019.1
28.4N   80.5W                 82                N/A     6/13   3/13
27.5N   80.2W                 83                N/A     9/13   7/13

$$
FLZ050-056-061-142-242-148-248-149-249-151-251-155-255-
160-260-200400-
WEST CENTRAL FLORIDA
  
CITY           SKY/WX    TMP DP  RH WIND       PRES   REMARKS
CRYSTAL RIVER  CLOUDY    72  68  88 NE7       30.10S                  
INVERNESS      FAIR      72  72 100 N7        30.10S                  
BROOKSVILLE    MOCLDY    73  67  81 NE10      30.09R                  
CLEARWATER AIR FAIR      73  68  83 NE8       30.06R                  
ST PETE CLEARW FAIR      78  68  71 NE12      30.06R                  
TAMPA INTL     FAIR      77  65  66 N7        30.06R                  
TAMPA EXEC     MOCLDY    72  68  88 CALM      30.07S                  
PLANT CITY     CLOUDY    75  68  78 N6        30.09R                  
MACDILL AFB    FAIR      75  65  71 NE10      30.05R                  
PETER O KNIGHT CLOUDY    77  68  73 NE12      30.06S                  
ST PETERSBURG  FAIR      80  69  69 NE17      30.04R                  
SARASOTA       FAIR      78  66  66 E10       30.02R                  
VENICE         CLOUDY    77  66  69 NE12      30.04R                  

STATION/POSITION SKY/WX   TEMP    WIND        PRES    WAVE   SWELL
                          AIR SEA DIR/SP/G            HT/PER HT/PER
                          (F)     (DEG/KT/KT) (MB)    (FT/S) (FT/S)
27.3N   84.2W                 85                N/A     6/ 6
CLEARWATER BEACH           77 87   30/ 11/ 16 1018.1R
MIDDLE TAMPA BAY           79      90/ 15/ 17 1017.7
VENICE                     77 85   50/  9/ 11 1016.8R

$$
FLZ066-069-070-075>078-162-262-165-265-200400-
SOUTHWEST FLORIDA AND KEYS
  
CITY           SKY/WX    TMP DP  RH WIND       PRES   REMARKS
PUNTA GORDA    FAIR      75  66  73 NE12      30.04S                  
FT MYERS       FAIR      75  64  68 NE9       30.01R                  
SOUTHWEST INTL FAIR      74  66  76 NE9       30.02R                  
NAPLES         FAIR      77  69  76 NE10      30.00R                  
MARCO ISLAND   FAIR      75  69  81 N12       30.01R                  
IMMOKALEE      MOCLDY    73  68  83 N9        30.00R                  
MARATHON       FAIR      81  71  71 NE16G25   29.95R                  
KEY WEST NAS   FAIR      82  69  64 NE16G23   29.95R                  
KEY WEST INTL  FAIR      82  70  66 NE17G24   29.96R                  

STATION/POSITION SKY/WX   TEMP    WIND        PRES    WAVE   SWELL
                          AIR SEA DIR/SP/G            HT/PER HT/PER
                          (F)     (DEG/KT/KT) (MB)    (FT/S) (FT/S)
NAPLES                     77 85   30/  8/ 14 1015.9
26.0N   85.6W              84 86   50/ 16/ 19 1015.7R   6/ 7
DRY TORTUGAS               84      80/ 23/ 26 1014.4R
SAND KEY                   82      60/ 24/ 28 1012.5R
SOMBRERO KEY               81      40/ 18/ 22 1014.2R
LONG KEY                   81                 1013.0R

$$
FLZ067-068-071>074-168-172>174-200400-
SOUTHEAST FLORIDA 
  
CITY           SKY/WX    TMP DP  RH WIND       PRES   REMARKS
W PALM BEACH   LGT RAIN  77  69  76 E20G31    30.02R                  
BOCA RATON     PTCLDY    77  72  83 E18G28    30.00R                  
FT LAUDER-EXEC MOCLDY    79  69  71 NE14      29.98R                  
FT LAUDERDALE  MOCLDY    80  68  66 E17G25    29.97R                  
POMPANO BEACH  MOCLDY    81  69  67 E16G25    29.98R                  
PEMBROKE PINES MOCLDY    80  70  71 E13       30.00R                  
OPA LOCKA      FAIR      81  70  69 NE12      29.98R                  
MIAMI          FAIR      81  68  64 NE12G22   29.97R                  
WEST KENDALL   FAIR      80  71  74 NE10      29.97R                  
HOMESTEAD      FAIR      79  73  80 NE14      29.95R                  

STATION/POSITION SKY/WX   TEMP    WIND        PRES    WAVE   SWELL
                          AIR SEA DIR/SP/G            HT/PER HT/PER
                          (F)     (DEG/KT/KT) (MB)    (FT/S) (FT/S)
VIRGINIA KEY               81 85   30/ 16/ 20 1014.3R
LAKE WORTH                 79 83   60/ 23/ 27 1017.0
FOWEY ROCKS                81 84   60/ 26/ 28 1014.7R
SETTLEMENT POINT           75      90/  8/  9 1016.1F

$$